Terminalur

Vevmynd ímóti Terminalinum

Ímóti Miđvági Ímóti Sřrvági


Veđriđ á flogvřllinum (metar):

EKVG 200250Z AUTO 15003KT 9999NDV FEW008/// BKN021/// BKN055/// 10/09 Q1015

METAR / TAF frá DMI fyri Vágar                      Veđurtíđindi frá Vága Floghavn

Atlantic Airways

Atlantic Airways heimasíđa

Tíđindi    .

26. januar 2015
Áheitan viđvíkjandi lasaraljós

Veđriđ

Kunning

Vevmyndir

Terminalur